This demonstration page uses our WeatherBlox Daily Observations layout. Learn more.

Left ArrowRight Arrow

39.92423, -83.80882

Hourly Observations for July 18, 2021

Temp ( °F °C ) Dew Point ( °F °C ) Humidity (%) Winds ( mph kmh ) Pressure ( in mb ) Visibility ( mi km ) Precip ( " mm )
12:56 am 00:56 Clear 64 18 N/A N/A E 3 6 30.16 1021 10 16 N/A
1:56 am 01:56 Clear 63 17 N/A N/A ESE 5 7 30.16 1022 10 16 N/A
2:56 am 02:56 Clear 63 17 N/A N/A ENE 5 7 30.17 1022 10 16 N/A
3:56 am 03:56 Clear 63 17 N/A N/A E 3 6 30.16 1022 10 16 N/A
4:56 am 04:56 Clear 63 17 N/A N/A ESE 3 6 30.18 1022 10 16 N/A
5:56 am 05:56 Clear 61 16 N/A N/A E 3 6 30.19 1022 10 16 N/A
6:56 am 06:56 Sunny 61 16 N/A N/A N N/A 30.20 1023 10 16 N/A
7:56 am 07:56 Mostly Cloudy 66 18.9 66 18.9 100 100 E 3 6 30.21 1023 10 16 N/A
8:56 am 08:56 Cloudy 68 20 64 17.8 87 87 E 3 6 30.22 1023 10 16 N/A
9:56 am 09:56 Partly Cloudy 72 22.2 63 17.2 73 73 E 5 7 30.23 1024 10 16 N/A
10:56 am 10:56 Sunny 74 23.3 64 17.8 71 71 ESE 8 13 30.23 1024 10 16 N/A
11:56 am 11:56 Sunny 75 23.9 63 17.2 66 66 E 7 11 30.23 1024 10 16 N/A
12:56 pm 12:56 Sunny 77 25 65 18.3 66 66 VRB 5 7 30.22 1023 10 16 N/A
1:56 pm 13:56 Mostly Sunny 78 25.6 65 18.3 64 64 VRB 6 9 30.20 1023 10 16 N/A
2:56 pm 14:56 Mostly Sunny 79 26.1 64 17.8 60 60 E 5 7 30.19 1022 10 16 N/A
3:56 pm 15:56 Mostly Sunny 80 26.7 64 17.8 58 58 E 6 9 30.17 1022 10 16 N/A
4:56 pm 16:56 Mostly Sunny 80 26.7 63 17.2 56 56 ENE 8 13 30.16 1021 10 16 N/A
5:56 pm 17:56 Sunny 80 26.7 63 17.2 56 56 NE 8 13 30.16 1021 10 16 N/A
6:56 pm 18:56 Sunny 78 25.6 64 17.8 62 62 NE 7 11 30.14 1021 10 16 N/A
7:56 pm 19:56 Sunny 76 24.4 64 17.8 67 67 NE 7 11 30.15 1021 10 16 N/A
8:56 pm 20:56 Sunny 73 22.8 65 18.3 76 76 NE 6 9 30.15 1021 10 16 N/A
9:56 pm 21:56 Clear 70 21.1 68 20 93 93 N N/A 30.16 1021 10 16 N/A
10:56 pm 22:56 Clear 68 20 68 20 100 100 N N/A 30.17 1022 10 16 N/A
11:56 pm 23:56 Clear 68 20 68 20 100 100 N N/A 30.17 1022 10 16 N/A

Powered by AerisWeather